User: anonymous   Login
Location: Theydon Bois
(51.6750°N, 0.1050°E)
Time: 05:00:22
(UTC+01:00)
Language:

Resurs 01 Rocket - Orbit

View from above orbital plane
View from above orbital plane
View from above satellite
View from above satellite

Ground track
Ground track

The orbit data is extracted from the following two-line orbital elements,

1 23343U 94074B   17296.55975524 +.00000013 +00000-0 +94246-5 0  9990
2 23343 098.1395 334.8282 0007501 031.3026 125.4042 14.76713523235568
Epoch (UTC): 23 October 2017 13:26:02
Eccentricity: 0.0007501
inclination: 98.1395°
perigee height: 634 km
apogee height: 645 km
right ascension of ascending node: 334.8282°
argument of perigee: 31.3026°
revolutions per day: 14.76713523
mean anomaly at epoch: 125.4042°
orbit number at epoch: 23556

The dashed part of the orbit path shows where the satellite is in the earth's shadow,  

DLR